Location: Aalsum
(53.3404°N, 6.0062°E)
Time: 09:11:55
(UTC+00:00)

CZ-2D R/B - Pass Details

Date: 28 January 2023
Orbit: 509 x 522 km, 97.4° (Epoch: 19 March)

Event Time Altitude Azimuth Distance (km) Brightness Sun altitude
Rises 15:18:44 0° 120° (ESE) 2,636 6.6 5.5°
Reaches altitude 10° 15:21:23 10° 100° (E) 1,750 5.5 5.2°
Drops below altitude 10° 15:26:16 10° 19° (NNE) 1,752 5.4 4.6°
Maximum altitude 16:57:33 63° 259° (WSW) 582 3.8 -7.1°
Sets 17:03:26 0° 344° (NNW) 2,642 6.8 -7.9°
